Regional Weather Roundup
Issued by NWS

Home | Current Version | Previous Version | Text Only | Print | Product List | Glossary On
Versions: 1 2 3 4 5 6 7 8 9 10 11 12 13 14 15 16 17 18 19 20 21 22 23 24 25 26 27 28 29 30 31 32 33 34 35 36 37 38 39 40 41 42 43 44 45 46 47 48 49 50
000
ASUS43 KDMX 311907
RWRIA

WEATHER ROUNDUP FOR IOWA
NATIONAL WEATHER SERVICE DES MOINES IA
200 PM CDT THU JUL 31 2014

NOTE: "FAIR" INDICATES FEW OR NO CLOUDS BELOW 12,000 FEET WITH NO
SIGNIFICANT WEATHER AND/OR OBSTRUCTIONS TO VISIBILITY.

* - THESE STATIONS ARE NOT NWS STATIONS...THUS NOT UNDER NWS
QUALITY CONTROL.  THEY ALSO DO NOT REPORT WEATHER SUCH
AS PRECIPITATION OR FOG.

IAZ001>003-012>014-020>022-031>034-043>046-312000-
   NORTHWEST IOWA

CITY           SKY/WX    TMP DP  RH WIND       PRES   REMARKS
CARROLL *      MOSUNNY   77  59  53 SW7       30.08F
CHEROKEE *     CLOUDY    75  61  60 SW9       30.08S
DENISON *      MOSUNNY   70  64  83 CALM      30.08S
LE MARS *      CLOUDY    73  63  68 SW5G12    30.09S
ORANGE CITY *  SUNNY     77  61  57 S6        30.09S
SHELDON *      PTSUNNY   75  59  57 S7        30.07S
SIOUX CITY     CLOUDY    73  62  68 E5        30.08S
SPENCER        MOSUNNY   80  55  42 CALM      30.07F HX  80
STORM LAKE *   SUNNY     75  59  57 SW3       30.10S
$$

IAZ055>058-069>071-079>083-090>094-312000-
   SOUTHWEST IOWA

CITY           SKY/WX    TMP DP  RH WIND       PRES   REMARKS
ATLANTIC *     MOSUNNY   79  57  47 SW8       30.09S HX  80
AUDUBON *      SUNNY     79  63  57 CALM      30.11S HX  80
CLARINDA *     SUNNY     81  55  41 SW7       30.10F HX  80
COUNCIL BLFS * SUNNY     79  59  50 SW5       30.08S HX  80
CRESTON *      MOSUNNY   77  55  47 W8        30.10F
HARLAN  *      PTSUNNY   75  63  64 SW3       30.12F
LAMONI         PTSUNNY   80  56  43 VRB6      30.10F HX  80
RED OAK *      MOSUNNY   81  59  47 SW8       30.09F HX  81
SHENANDOAH *   SUNNY     81  57  44 S7        30.09F HX  81
$$

IAZ047>049-059>061-072>074-084-312000-
   CENTRAL IOWA

CITY           SKY/WX    TMP DP  RH WIND       PRES   REMARKS
AMES           MOSUNNY   79  59  50 SW8       30.08F HX  80
ANKENY *       SUNNY     81  55  41 VRB7      30.08S HX  80
CHARITON *     PTSUNNY   77  57  50 W5        30.10S
DES MOINES     MOSUNNY   82  55  39 W6        30.07F HX  81
GRINNELL*      MOSUNNY   79  59  50 SW8       30.09S HX  80
KNOXVILLE *    MOSUNNY   79  57  47 VRB7      30.08S HX  80
MARSHALLTOWN   MOSUNNY   80  59  48 W6        30.07F HX  81
PELLA *        SUNNY     81  57  44 W5        30.10R HX  81
PERRY *        PTSUNNY   79  57  47 SW6       30.08F HX  80
$$

IAZ004>006-015-016-023>025-035-036-312000-
   NORTH CENTRAL IOWA

CITY           SKY/WX    TMP DP  RH WIND       PRES   REMARKS
ALGONA *       MOSUNNY   79  54  41 VRB6      30.08S
CLARION *      MOSUNNY   79  55  44 W10       30.08S
ESTHERVILLE    MOSUNNY   77  56  48 W6        30.07F
FORT DODGE *   SUNNY     79  55  44 CALM      30.09S
MASON CITY     PTSUNNY   76  56  49 W12       30.08F
FOREST CITY *  MOSUNNY   79  59  50 W7        30.08S HX  80
IOWA FALLS *     N/A     79  57  47 NW6       30.09S HX  80
$$

IAZ007>011-017>019-026>030-037>042-050>054-066-312000-
   NORTHEAST IOWA

CITY           SKY/WX    TMP DP  RH WIND       PRES   REMARKS
CEDAR RAPIDS   MOSUNNY   79  59  50 VRB6      30.06F HX  80
CHARLES CITY * MOSUNNY   79  57  47 W7        30.07F HX  80
CLINTON *      MOSUNNY   79  63  57 W10       30.09F HX  80
DECORAH *      SUNNY     77  57  50 VRB6      30.05F
DUBUQUE        MOSUNNY   78  57  48 W13       30.06F
MONTICELLO *   MOSUNNY   77  59  53 W10G18    30.06F
OELWEIN *      MOSUNNY   77  57  50 NW6G12    30.08S
WATERLOO       MOSUNNY   80  56  43 W9        30.05F HX  80
$$

IAZ064-065-067-068-078-312000-
   EAST CENTRAL IOWA

CITY           SKY/WX    TMP DP  RH WIND       PRES   REMARKS
DAVENPORT      SUNNY     79  60  52 NW8       30.07F HX  80
IOWA CITY      MOSUNNY   79  60  52 VRB6      30.08F HX  80
MT. PLEASANT * MOSUNNY   82  57  42 W6        30.08F HX  82
MUSCATINE *    SUNNY     82  59  44 W10       30.07F HX  82
QUAD CITIES    MOSUNNY   82  60  47 W10G17    30.06F HX  82
$$

IAZ062-063-075>077-085>089-095>099-312000-
   SOUTHEAST IOWA

CITY           SKY/WX    TMP DP  RH WIND       PRES   REMARKS
BURLINGTON     MOSUNNY   79  60  52 VRB3      30.08F HX  80
FAIRFIELD *    MOSUNNY   79  61  53 VRB3      30.09S HX  80
FORT MADISON * MOSUNNY   81  59  47 SW3       30.09F HX  81
KEOKUK *       SUNNY     79  61  53 S5        30.08F HX  80
OSKALOOSA *      N/A     79  59  50 W5        30.09S HX  80
CENTERVILLE *  SUNNY     79  59  50 W3        30.11S HX  80
OTTUMWA        MOSUNNY   79  58  48 CALM      30.07F HX  80
WASHINGTON *   MOSUNNY   81  61  50 W8        30.08S HX  81
$$

ABBREVIATIONS USED IN REMARKS
   TC - TEMPERATURES IN CELSIUS
  WCI - WIND CHILL INDEX
   HX - HEAT INDEX
  VSB - VISIBILITY
$$




USA.gov is the U.S. government's official web portal to all federal, state and local government web resources and services.